AUA45SM LEMG-LOWW

Flight info

Callsign AUA45SM
Flight time 2h 46m
Altitude 34000
Route RIXUR N851 ALT/N0449F360 N851 ISTER DCT NIVDA DCT OMEDA DCT RAPUR DCT TORTU DCT ERTEV DCT IDONA/N0445F370 DCT BARPI DCT LAPNA LAPNA2W
Aircraft A320/M-SDE3FGHIRWY/LB1

Departure

Time 2026-04-25 13:00
Airport Málaga-Costa del Sol Airport (LEMG)

Arrival

Time 2026-04-25 15:46
Airport Vienna International Airport (LOWW)
Time Latitude Longitude Altitude Speed Heading
2026-04-25 12:21 36.67665 -4.49467 42 ft 0 kts 41°
2026-04-25 12:51 36.67662 -4.49469 40 ft 2 kts 41°
2026-04-25 12:51 36.67648 -4.49484 40 ft 3 kts 39°
2026-04-25 12:51 36.67632 -4.49500 40 ft 3 kts 33°
2026-04-25 12:52 36.67615 -4.49512 40 ft 3 kts 15°
2026-04-25 12:52 36.67599 -4.49514 40 ft 3 kts 325°
2026-04-25 12:52 36.67589 -4.49502 42 ft 3 kts 313°
2026-04-25 12:52 36.67577 -4.49487 36 ft 1 kts 311°
2026-04-25 12:53 36.67576 -4.49485 36 ft 0 kts 311°
2026-04-25 12:54 36.67591 -4.49506 42 ft 5 kts 311°
2026-04-25 12:55 36.67625 -4.49554 41 ft 8 kts 312°
2026-04-25 12:55 36.67638 -4.49589 42 ft 5 kts 256°
2026-04-25 12:55 36.67588 -4.49642 42 ft 10 kts 220°
2026-04-25 12:55 36.67564 -4.49717 40 ft 11 kts 300°
2026-04-25 12:56 36.67618 -4.49793 43 ft 14 kts 312°
2026-04-25 12:56 36.67695 -4.49901 43 ft 19 kts 311°
2026-04-25 12:56 36.67788 -4.50031 44 ft 21 kts 311°
2026-04-25 12:56 36.67893 -4.50178 44 ft 24 kts 311°
2026-04-25 12:57 36.68006 -4.50335 44 ft 22 kts 311°
2026-04-25 12:57 36.68105 -4.50474 43 ft 23 kts 312°
2026-04-25 12:57 36.68213 -4.50626 45 ft 24 kts 311°
2026-04-25 12:57 36.68325 -4.50784 48 ft 24 kts 310°
2026-04-25 12:58 36.68440 -4.50944 51 ft 22 kts 311°
2026-04-25 12:58 36.68501 -4.51058 54 ft 14 kts 280°
2026-04-25 12:58 36.68481 -4.51162 57 ft 11 kts 249°
2026-04-25 12:58 36.68451 -4.51223 61 ft 4 kts 217°
2026-04-25 12:59 36.68440 -4.51227 57 ft 1 kts 176°
2026-04-25 12:59 36.68422 -4.51215 58 ft 3 kts 139°
2026-04-25 12:59 36.68356 -4.51121 61 ft 42 kts 132°
2026-04-25 12:59 36.68007 -4.50633 55 ft 106 kts 131°
2026-04-25 13:00 36.67395 -4.49775 49 ft 156 kts 131°
2026-04-25 13:00 36.66913 -4.49101 382 ft 155 kts 133°
2026-04-25 13:00 36.65958 -4.47761 1260 ft 156 kts 130°
2026-04-25 13:00 36.65212 -4.46714 1624 ft 176 kts 131°
2026-04-25 13:01 36.64343 -4.45500 1907 ft 199 kts 131°
2026-04-25 13:01 36.63365 -4.44136 2235 ft 220 kts 131°
2026-04-25 13:01 36.62307 -4.42660 2717 ft 240 kts 131°
2026-04-25 13:01 36.61156 -4.41056 3291 ft 255 kts 130°
2026-04-25 13:02 36.60148 -4.39214 4140 ft 261 kts 115°
2026-04-25 13:02 36.59580 -4.37064 5091 ft 264 kts 101°
2026-04-25 13:02 36.59209 -4.34811 5988 ft 267 kts 101°
2026-04-25 13:02 36.58830 -4.32540 6880 ft 270 kts 101°
2026-04-25 13:03 36.58442 -4.30237 7687 ft 273 kts 101°
2026-04-25 13:03 36.58243 -4.27885 8418 ft 276 kts 85°
2026-04-25 13:03 36.58738 -4.25577 9143 ft 280 kts 62°
2026-04-25 13:03 36.59959 -4.23677 9912 ft 285 kts 45°
2026-04-25 13:04 36.61397 -4.21979 10356 ft 299 kts 44°
2026-04-25 13:04 36.62979 -4.20136 10528 ft 323 kts 44°
2026-04-25 13:04 36.64678 -4.18163 10679 ft 345 kts 44°
2026-04-25 13:04 36.66459 -4.16095 11140 ft 354 kts 44°
2026-04-25 13:05 36.68267 -4.13992 11728 ft 358 kts 44°
2026-04-25 13:05 36.70098 -4.11858 12378 ft 361 kts 44°
2026-04-25 13:05 36.71938 -4.09704 13020 ft 365 kts 44°
2026-04-25 13:05 36.73797 -4.07523 13667 ft 369 kts 44°
2026-04-25 13:06 36.75672 -4.05319 14248 ft 373 kts 44°
2026-04-25 13:06 36.77567 -4.03088 14812 ft 375 kts 44°
2026-04-25 13:06 36.79445 -4.00877 15357 ft 378 kts 44°
2026-04-25 13:06 36.81365 -3.98614 15911 ft 381 kts 44°
2026-04-25 13:07 36.83299 -3.96333 16470 ft 384 kts 44°
2026-04-25 13:07 36.85245 -3.94035 17024 ft 387 kts 44°
2026-04-25 13:07 36.87212 -3.91716 17578 ft 390 kts 44°
2026-04-25 13:07 36.89189 -3.89386 18127 ft 393 kts 44°
2026-04-25 13:08 36.91185 -3.87031 18636 ft 396 kts 44°
2026-04-25 13:08 36.93191 -3.84662 19105 ft 398 kts 44°
2026-04-25 13:08 36.95211 -3.82274 19580 ft 401 kts 44°
2026-04-25 13:08 36.97247 -3.79860 20023 ft 404 kts 44°
2026-04-25 13:09 36.99286 -3.77438 20486 ft 406 kts 44°
2026-04-25 13:09 37.01347 -3.74995 20931 ft 409 kts 44°
2026-04-25 13:09 37.03420 -3.72537 21361 ft 411 kts 44°
2026-04-25 13:09 37.05500 -3.70066 21789 ft 414 kts 44°
2026-04-25 13:10 37.07579 -3.67595 22207 ft 416 kts 44°
2026-04-25 13:10 37.09639 -3.65051 22609 ft 418 kts 49°
2026-04-25 13:10 37.11396 -3.62138 23006 ft 419 kts 59°
2026-04-25 13:10 37.12772 -3.58914 23387 ft 421 kts 64°
2026-04-25 13:11 37.14068 -3.55619 23749 ft 423 kts 64°
2026-04-25 13:11 37.15375 -3.52299 24079 ft 425 kts 64°
2026-04-25 13:11 37.16691 -3.48975 24411 ft 427 kts 64°
2026-04-25 13:11 37.18016 -3.45631 24737 ft 428 kts 64°
2026-04-25 13:12 37.19342 -3.42279 25051 ft 429 kts 64°
2026-04-25 13:12 37.20669 -3.38924 25369 ft 430 kts 64°
2026-04-25 13:12 37.21998 -3.35549 25686 ft 432 kts 64°
2026-04-25 13:12 37.22877 -3.33305 25892 ft 433 kts 64°
2026-04-25 13:13 37.24658 -3.28765 26277 ft 435 kts 64°
2026-04-25 13:13 37.25996 -3.25360 26570 ft 436 kts 64°
2026-04-25 13:13 37.27341 -3.21937 26853 ft 438 kts 64°
2026-04-25 13:13 37.28687 -3.18511 27129 ft 439 kts 65°
2026-04-25 13:14 37.30040 -3.15059 27384 ft 440 kts 65°
2026-04-25 13:14 37.31390 -3.11607 27635 ft 441 kts 65°
2026-04-25 13:14 37.32747 -3.08141 27877 ft 443 kts 65°
2026-04-25 13:14 37.34107 -3.04656 28117 ft 444 kts 65°
2026-04-25 13:15 37.35445 -3.01213 28340 ft 445 kts 65°
2026-04-25 13:15 37.36804 -2.97713 28557 ft 446 kts 65°
2026-04-25 13:15 37.38166 -2.94201 28777 ft 448 kts 65°
2026-04-25 13:15 37.39527 -2.90684 29079 ft 447 kts 65°
2026-04-25 13:16 37.40890 -2.87171 29394 ft 446 kts 65°
2026-04-25 13:16 37.42245 -2.83673 29700 ft 445 kts 65°
2026-04-25 13:16 37.43598 -2.80173 30002 ft 444 kts 65°
2026-04-25 13:16 37.44948 -2.76674 30261 ft 444 kts 66°
2026-04-25 13:17 37.46297 -2.73179 30483 ft 444 kts 66°
2026-04-25 13:17 37.47646 -2.69681 30710 ft 444 kts 66°
2026-04-25 13:17 37.48989 -2.66188 30992 ft 442 kts 66°
2026-04-25 13:17 37.50323 -2.62719 31292 ft 440 kts 66°
2026-04-25 13:18 37.51622 -2.59344 31579 ft 438 kts 66°
2026-04-25 13:18 37.52945 -2.55904 31858 ft 436 kts 66°
2026-04-25 13:18 37.54261 -2.52471 32128 ft 434 kts 66°
2026-04-25 13:18 37.55569 -2.49049 32400 ft 433 kts 66°
2026-04-25 13:19 37.56839 -2.45720 32657 ft 431 kts 66°
2026-04-25 13:19 37.58139 -2.42315 32932 ft 430 kts 66°
2026-04-25 13:19 37.59432 -2.38928 33191 ft 428 kts 66°
2026-04-25 13:19 37.59852 -2.37826 33279 ft 428 kts 66°
2026-04-25 13:20 37.62003 -2.32175 33715 ft 426 kts 66°
2026-04-25 13:20 37.63281 -2.28815 33983 ft 424 kts 66°
2026-04-25 13:20 37.64559 -2.25458 34124 ft 425 kts 67°
2026-04-25 13:20 37.65838 -2.22097 34143 ft 425 kts 66°
2026-04-25 13:21 37.68376 -2.15417 34143 ft 425 kts 67°
2026-04-25 13:21 37.70943 -2.08629 34152 ft 429 kts 67°
2026-04-25 13:22 37.73504 -2.01847 34152 ft 432 kts 67°
2026-04-25 13:23 37.77381 -1.91556 34154 ft 432 kts 67°
2026-04-25 13:23 37.79960 -1.84680 34150 ft 433 kts 67°
2026-04-25 13:24 37.82533 -1.77819 34147 ft 434 kts 67°
2026-04-25 13:24 37.85108 -1.70909 34148 ft 434 kts 67°
2026-04-25 13:25 37.87652 -1.64086 34143 ft 435 kts 67°
2026-04-25 13:25 37.90228 -1.57166 34145 ft 435 kts 67°
2026-04-25 13:26 37.92806 -1.50233 34141 ft 435 kts 67°
2026-04-25 13:26 37.95379 -1.43281 34132 ft 436 kts 67°
2026-04-25 13:27 37.97952 -1.36319 34130 ft 437 kts 67°
2026-04-25 13:27 38.00528 -1.29333 34136 ft 438 kts 68°
2026-04-25 13:28 38.03098 -1.22329 34138 ft 438 kts 68°
2026-04-25 13:28 38.05651 -1.15363 34137 ft 438 kts 68°
2026-04-25 13:29 38.07803 -1.09488 34134 ft 439 kts 67°
2026-04-25 13:29 38.10791 -1.01324 34128 ft 439 kts 68°
2026-04-25 13:30 38.14636 -0.90761 34119 ft 439 kts 68°
2026-04-25 13:31 38.18044 -0.81369 34120 ft 439 kts 68°
2026-04-25 13:31 38.20600 -0.74286 34102 ft 440 kts 68°
2026-04-25 13:32 38.23135 -0.67247 34112 ft 442 kts 68°
2026-04-25 13:32 38.25705 -0.60127 34113 ft 443 kts 68°
2026-04-25 13:33 38.28224 -0.52963 34111 ft 443 kts 69°
2026-04-25 13:33 38.30539 -0.45679 34116 ft 444 kts 71°
2026-04-25 13:34 38.32787 -0.38412 34120 ft 444 kts 71°
2026-04-25 13:34 38.35077 -0.31117 34119 ft 444 kts 70°
2026-04-25 13:35 38.37427 -0.23835 34114 ft 444 kts 69°
2026-04-25 13:35 38.39862 -0.16590 34116 ft 445 kts 69°
2026-04-25 13:36 38.42303 -0.09352 34128 ft 445 kts 69°
2026-04-25 13:36 38.44714 -0.02093 34118 ft 445 kts 69°
2026-04-25 13:37 38.47090 0.05198 34115 ft 445 kts 70°
2026-04-25 13:37 38.49422 0.12511 34127 ft 445 kts 70°
2026-04-25 13:38 38.51738 0.19786 34115 ft 445 kts 70°
2026-04-25 13:38 38.54074 0.27105 34124 ft 445 kts 70°
2026-04-25 13:39 38.56414 0.34434 34130 ft 445 kts 70°
2026-04-25 13:39 38.58752 0.41761 34121 ft 446 kts 69°
2026-04-25 13:40 38.61081 0.49109 34119 ft 446 kts 70°
2026-04-25 13:40 38.63410 0.56472 34114 ft 447 kts 70°
2026-04-25 13:41 38.65729 0.63843 34111 ft 447 kts 70°
2026-04-25 13:41 38.68050 0.71236 34107 ft 448 kts 70°
2026-04-25 13:42 38.70379 0.78656 34102 ft 449 kts 70°
2026-04-25 13:42 38.72706 0.86066 34107 ft 449 kts 70°
2026-04-25 13:43 38.75029 0.93494 34125 ft 449 kts 70°
2026-04-25 13:43 38.77318 1.00878 34116 ft 449 kts 70°
2026-04-25 13:44 38.79624 1.08317 34122 ft 449 kts 70°
2026-04-25 13:44 38.81931 1.15760 34109 ft 449 kts 70°
2026-04-25 13:45 38.84233 1.23205 34112 ft 449 kts 70°
2026-04-25 13:45 38.86526 1.30649 34111 ft 449 kts 70°
2026-04-25 13:46 38.88813 1.38085 34106 ft 449 kts 70°
2026-04-25 13:46 38.91097 1.45555 34093 ft 450 kts 70°
2026-04-25 13:47 38.93370 1.53077 34094 ft 452 kts 70°
2026-04-25 13:47 38.95591 1.60636 34093 ft 453 kts 71°
2026-04-25 13:48 38.97807 1.68237 34099 ft 455 kts 71°
2026-04-25 13:48 38.98921 1.72044 34216 ft 456 kts 71°
2026-04-25 13:48 39.00037 1.75862 34409 ft 456 kts 71°
2026-04-25 13:48 39.01151 1.79679 34616 ft 455 kts 71°
2026-04-25 13:49 39.02261 1.83488 34823 ft 454 kts 71°
2026-04-25 13:49 39.03370 1.87288 35028 ft 454 kts 71°
2026-04-25 13:49 39.04479 1.91083 35224 ft 453 kts 71°
2026-04-25 13:49 39.05587 1.94882 35394 ft 453 kts 71°
2026-04-25 13:50 39.06692 1.98682 35551 ft 452 kts 71°
2026-04-25 13:50 39.07785 2.02451 35720 ft 452 kts 71°
2026-04-25 13:50 39.08889 2.06261 35886 ft 451 kts 71°
2026-04-25 13:50 39.09973 2.09990 36068 ft 450 kts 71°
2026-04-25 13:51 39.11069 2.13762 36133 ft 450 kts 71°
2026-04-25 13:51 39.13251 2.21311 36133 ft 449 kts 71°
2026-04-25 13:52 39.15427 2.28871 36131 ft 449 kts 71°
2026-04-25 13:52 39.17593 2.36429 36131 ft 449 kts 71°
2026-04-25 13:53 39.19753 2.43984 36120 ft 449 kts 71°
2026-04-25 13:53 39.21909 2.51540 36121 ft 449 kts 71°
2026-04-25 13:54 39.24056 2.59116 36120 ft 449 kts 71°
2026-04-25 13:54 39.26184 2.66645 36124 ft 449 kts 71°
2026-04-25 13:55 39.28326 2.74221 36111 ft 450 kts 71°
2026-04-25 13:55 39.30481 2.81821 36113 ft 451 kts 71°
2026-04-25 13:56 39.32625 2.89428 36108 ft 451 kts 71°
2026-04-25 13:56 39.34761 2.97042 36130 ft 451 kts 71°
2026-04-25 13:57 39.36887 3.04664 36132 ft 451 kts 71°
2026-04-25 13:57 39.39013 3.12286 36142 ft 451 kts 71°
2026-04-25 13:58 39.41138 3.19912 36148 ft 451 kts 71°
2026-04-25 13:58 39.43528 3.27394 36152 ft 451 kts 61°
2026-04-25 13:59 39.46737 3.34367 36149 ft 451 kts 60°
2026-04-25 13:59 39.49951 3.41343 36151 ft 451 kts 60°
2026-04-25 14:00 39.53159 3.48322 36147 ft 451 kts 60°
2026-04-25 14:00 39.56357 3.55315 36151 ft 451 kts 60°
2026-04-25 14:01 39.59536 3.62268 36153 ft 451 kts 60°
2026-04-25 14:01 39.62730 3.69272 36152 ft 451 kts 60°
2026-04-25 14:02 39.65915 3.76291 36154 ft 451 kts 60°
2026-04-25 14:02 39.69106 3.83310 36153 ft 452 kts 59°
2026-04-25 14:03 39.72297 3.90343 36150 ft 452 kts 60°
2026-04-25 14:03 39.75479 3.97404 36151 ft 452 kts 60°
2026-04-25 14:04 39.78654 4.04462 36158 ft 453 kts 60°
2026-04-25 14:04 39.81831 4.11524 36164 ft 453 kts 60°
2026-04-25 14:05 39.85004 4.18603 36156 ft 453 kts 60°
2026-04-25 14:05 39.88181 4.25679 36155 ft 453 kts 59°
2026-04-25 14:06 39.91359 4.32749 36155 ft 452 kts 59°
2026-04-25 14:06 39.94506 4.39777 36157 ft 452 kts 59°
2026-04-25 14:07 39.97688 4.46919 36160 ft 452 kts 59°
2026-04-25 14:07 40.00839 4.54013 36164 ft 452 kts 59°
2026-04-25 14:08 40.03972 4.61062 36165 ft 452 kts 59°
2026-04-25 14:08 40.07309 4.67999 36156 ft 451 kts 50°
2026-04-25 14:09 40.11328 4.74280 36152 ft 451 kts 49°
2026-04-25 14:09 40.15350 4.80580 36150 ft 451 kts 50°
2026-04-25 14:10 40.19361 4.86900 36152 ft 452 kts 50°
2026-04-25 14:10 40.23369 4.93231 36159 ft 452 kts 50°
2026-04-25 14:11 40.27378 4.99575 36164 ft 452 kts 50°
2026-04-25 14:11 40.31390 5.05916 36168 ft 452 kts 50°
2026-04-25 14:12 40.35401 5.12267 36168 ft 452 kts 50°
2026-04-25 14:12 40.39393 5.18619 36167 ft 452 kts 50°
2026-04-25 14:13 40.43393 5.24999 36164 ft 451 kts 50°
2026-04-25 14:13 40.47352 5.31325 36161 ft 451 kts 50°
2026-04-25 14:14 40.51341 5.37694 36159 ft 451 kts 50°
2026-04-25 14:14 40.55325 5.44079 36158 ft 452 kts 50°
2026-04-25 14:15 40.59302 5.50476 36161 ft 452 kts 51°
2026-04-25 14:15 40.63275 5.56885 36160 ft 452 kts 51°
2026-04-25 14:16 40.67244 5.63290 36159 ft 452 kts 50°
2026-04-25 14:16 40.71220 5.69701 36158 ft 452 kts 50°
2026-04-25 14:17 40.75185 5.76120 36164 ft 452 kts 51°
2026-04-25 14:17 40.79150 5.82560 36159 ft 452 kts 51°
2026-04-25 14:18 40.83106 5.88998 36161 ft 452 kts 51°
2026-04-25 14:18 40.87063 5.95452 36160 ft 452 kts 51°
2026-04-25 14:19 40.91022 6.01910 36160 ft 452 kts 51°
2026-04-25 14:19 40.94984 6.08367 36160 ft 452 kts 51°
2026-04-25 14:20 40.98932 6.14843 36169 ft 452 kts 51°
2026-04-25 14:20 41.02838 6.21275 36170 ft 451 kts 51°
2026-04-25 14:21 41.06762 6.27741 36167 ft 450 kts 51°
2026-04-25 14:21 41.10685 6.34214 36165 ft 450 kts 50°
2026-04-25 14:22 41.14604 6.40683 36168 ft 450 kts 50°
2026-04-25 14:22 41.18515 6.47168 36165 ft 450 kts 50°
2026-04-25 14:23 41.22411 6.53649 36169 ft 449 kts 50°
2026-04-25 14:23 41.25649 6.59031 36165 ft 448 kts 50°
2026-04-25 14:24 41.29607 6.65420 36160 ft 448 kts 49°
2026-04-25 14:24 41.33603 6.71778 36157 ft 447 kts 49°
2026-04-25 14:25 41.37580 6.78144 36156 ft 447 kts 50°
2026-04-25 14:25 41.41532 6.84549 36147 ft 448 kts 50°
2026-04-25 14:26 41.45477 6.90951 36149 ft 447 kts 50°
2026-04-25 14:26 41.49420 6.97353 36150 ft 446 kts 50°
2026-04-25 14:27 41.53353 7.03755 36153 ft 446 kts 50°
2026-04-25 14:27 41.57278 7.10157 36146 ft 446 kts 50°
2026-04-25 14:28 41.61209 7.16582 36138 ft 446 kts 50°
2026-04-25 14:28 41.65109 7.22959 36126 ft 446 kts 50°
2026-04-25 14:29 41.69029 7.29398 36130 ft 447 kts 50°
2026-04-25 14:29 41.72950 7.35860 36129 ft 447 kts 50°
2026-04-25 14:30 41.76870 7.42318 36124 ft 447 kts 50°
2026-04-25 14:30 41.82746 7.52033 36117 ft 448 kts 50°
2026-04-25 14:31 41.86669 7.58525 36120 ft 448 kts 50°
2026-04-25 14:31 41.90586 7.65032 36128 ft 447 kts 50°
2026-04-25 14:32 41.94485 7.71528 36133 ft 447 kts 50°
2026-04-25 14:32 41.98415 7.78015 36121 ft 447 kts 49°
2026-04-25 14:33 42.02596 7.84214 36115 ft 447 kts 46°
2026-04-25 14:33 42.06905 7.90257 36116 ft 448 kts 46°
2026-04-25 14:34 42.11188 7.96357 36117 ft 448 kts 46°
2026-04-25 14:34 42.15426 8.02518 36117 ft 448 kts 47°
2026-04-25 14:35 42.19627 8.08682 36118 ft 448 kts 47°
2026-04-25 14:35 42.23853 8.14882 36118 ft 449 kts 47°
2026-04-25 14:36 42.27977 8.20924 36110 ft 449 kts 47°
2026-04-25 14:36 42.32206 8.27139 36110 ft 449 kts 47°
2026-04-25 14:37 42.36407 8.33388 36102 ft 450 kts 47°
2026-04-25 14:37 42.40647 8.39630 36106 ft 450 kts 47°
2026-04-25 14:38 42.44883 8.45859 36112 ft 450 kts 46°
2026-04-25 14:38 42.49121 8.52115 36105 ft 450 kts 47°
2026-04-25 14:39 42.53333 8.58376 36110 ft 450 kts 47°
2026-04-25 14:39 42.57556 8.64661 36110 ft 450 kts 47°
2026-04-25 14:40 42.61772 8.70945 36112 ft 450 kts 47°
2026-04-25 14:40 42.65989 8.77263 36111 ft 450 kts 47°
2026-04-25 14:41 42.70198 8.83571 36106 ft 451 kts 47°
2026-04-25 14:41 42.74418 8.89896 36100 ft 451 kts 47°
2026-04-25 14:42 42.77891 8.95111 36102 ft 452 kts 47°
2026-04-25 14:42 42.82820 9.02535 36102 ft 452 kts 47°
2026-04-25 14:43 42.87031 9.08909 36109 ft 452 kts 47°
2026-04-25 14:43 42.91218 9.15247 36101 ft 454 kts 47°
2026-04-25 14:44 42.95444 9.21657 36104 ft 455 kts 47°
2026-04-25 14:44 42.99672 9.28096 36112 ft 456 kts 47°
2026-04-25 14:45 43.03908 9.34548 36114 ft 456 kts 47°
2026-04-25 14:45 43.08142 9.41010 36112 ft 456 kts 47°
2026-04-25 14:46 43.12370 9.47481 36119 ft 456 kts 48°
2026-04-25 14:46 43.16592 9.53969 36126 ft 456 kts 48°
2026-04-25 14:47 43.20099 9.59367 36125 ft 456 kts 48°
2026-04-25 14:47 43.25014 9.66946 36123 ft 456 kts 47°
2026-04-25 14:48 43.29239 9.73474 36117 ft 457 kts 47°
2026-04-25 14:48 43.33452 9.79998 36114 ft 457 kts 47°
2026-04-25 14:49 43.37642 9.86492 36116 ft 457 kts 48°
2026-04-25 14:49 43.41852 9.93045 36116 ft 457 kts 48°
2026-04-25 14:50 43.46060 9.99615 36105 ft 458 kts 48°
2026-04-25 14:50 43.50274 10.06203 36104 ft 458 kts 48°
2026-04-25 14:51 43.54488 10.12797 36106 ft 458 kts 48°
2026-04-25 14:51 43.58691 10.19396 36103 ft 459 kts 47°
2026-04-25 14:52 43.62898 10.26030 36090 ft 459 kts 48°
2026-04-25 14:52 43.66426 10.31599 36090 ft 460 kts 48°
2026-04-25 14:53 43.71327 10.39337 36090 ft 461 kts 47°
2026-04-25 14:53 43.75541 10.46007 36091 ft 461 kts 48°
2026-04-25 14:54 43.79767 10.52713 36093 ft 462 kts 48°
2026-04-25 14:54 43.83987 10.59428 36103 ft 463 kts 48°
2026-04-25 14:55 43.88217 10.66169 36103 ft 464 kts 48°
2026-04-25 14:55 43.92446 10.72928 36107 ft 464 kts 48°
2026-04-25 14:56 43.96678 10.79715 36125 ft 465 kts 48°
2026-04-25 14:56 44.00906 10.86517 36119 ft 465 kts 48°
2026-04-25 14:57 44.05131 10.93339 36125 ft 466 kts 48°
2026-04-25 14:57 44.09308 11.00089 36161 ft 466 kts 48°
2026-04-25 14:58 44.13527 11.06908 36144 ft 467 kts 48°
2026-04-25 14:58 44.17733 11.13726 36161 ft 467 kts 48°
2026-04-25 14:59 44.21933 11.20551 36162 ft 467 kts 48°
2026-04-25 14:59 44.26166 11.27455 36160 ft 468 kts 48°
2026-04-25 15:00 44.30391 11.34355 36067 ft 468 kts 48°
2026-04-25 15:00 44.34611 11.41269 36056 ft 468 kts 48°
2026-04-25 15:01 44.38826 11.48190 36049 ft 467 kts 48°
2026-04-25 15:01 44.43032 11.55115 36056 ft 468 kts 48°
2026-04-25 15:02 44.47194 11.61995 36058 ft 468 kts 48°
2026-04-25 15:02 44.51399 11.68963 36054 ft 468 kts 48°
2026-04-25 15:03 44.55603 11.75933 36063 ft 468 kts 48°
2026-04-25 15:03 44.59811 11.82917 36077 ft 469 kts 48°
2026-04-25 15:04 44.64018 11.89924 36053 ft 470 kts 48°
2026-04-25 15:04 44.68225 11.96950 36045 ft 470 kts 48°
2026-04-25 15:05 44.72435 12.04002 36048 ft 471 kts 48°
2026-04-25 15:06 44.78747 12.14619 36032 ft 472 kts 48°
2026-04-25 15:06 44.82963 12.21706 36023 ft 473 kts 48°
2026-04-25 15:07 44.87189 12.28829 36019 ft 473 kts 48°
2026-04-25 15:07 44.91365 12.35911 36032 ft 473 kts 48°
2026-04-25 15:08 44.95570 12.43056 36019 ft 474 kts 48°
2026-04-25 15:08 44.99777 12.50220 36018 ft 474 kts 48°
2026-04-25 15:09 45.03977 12.57390 36014 ft 474 kts 48°
2026-04-25 15:09 45.10281 12.68175 36013 ft 474 kts 48°
2026-04-25 15:10 45.14480 12.75394 36019 ft 475 kts 49°
2026-04-25 15:11 45.20771 12.86264 36023 ft 476 kts 49°
2026-04-25 15:11 45.24971 12.93509 36025 ft 476 kts 48°
2026-04-25 15:12 45.30568 13.03196 36032 ft 477 kts 49°
2026-04-25 15:12 45.34053 13.09255 36030 ft 477 kts 49°
2026-04-25 15:13 45.41734 13.22658 36034 ft 478 kts 48°
2026-04-25 15:14 45.45246 13.28803 36038 ft 478 kts 49°
2026-04-25 15:14 45.49412 13.36115 36028 ft 478 kts 49°
2026-04-25 15:15 45.53595 13.43478 36031 ft 478 kts 49°
2026-04-25 15:15 45.57779 13.50865 36043 ft 478 kts 49°
2026-04-25 15:16 45.61792 13.58424 36040 ft 480 kts 52°
2026-04-25 15:16 45.67439 13.70232 36034 ft 480 kts 54°
2026-04-25 15:17 45.73124 13.82044 36050 ft 480 kts 52°
2026-04-25 15:18 45.76963 13.89880 36036 ft 481 kts 52°
2026-04-25 15:18 45.82709 14.01681 36027 ft 481 kts 53°
2026-04-25 15:19 45.85871 14.08230 36024 ft 481 kts 53°
2026-04-25 15:19 45.90317 14.17455 36020 ft 481 kts 53°
2026-04-25 15:20 45.94121 14.25368 36010 ft 481 kts 53°
2026-04-25 15:20 45.97886 14.33239 36004 ft 481 kts 53°
2026-04-25 15:21 46.01674 14.41170 35995 ft 481 kts 53°
2026-04-25 15:21 46.05460 14.49098 36006 ft 481 kts 53°
2026-04-25 15:22 46.09235 14.57045 35996 ft 481 kts 53°
2026-04-25 15:22 46.13007 14.64994 35992 ft 481 kts 53°
2026-04-25 15:23 46.16778 14.72967 35987 ft 481 kts 53°
2026-04-25 15:23 46.20534 14.80957 35983 ft 481 kts 53°
2026-04-25 15:24 46.24283 14.88948 35987 ft 481 kts 53°
2026-04-25 15:24 46.27402 14.95601 35972 ft 481 kts 53°
2026-04-25 15:25 46.31784 15.04981 35975 ft 481 kts 53°
2026-04-25 15:25 46.35530 15.13016 35980 ft 481 kts 53°
2026-04-25 15:26 46.39266 15.21059 35991 ft 481 kts 53°
2026-04-25 15:26 46.42974 15.29075 35985 ft 481 kts 53°
2026-04-25 15:27 46.46675 15.37108 35975 ft 481 kts 53°
2026-04-25 15:28 46.52578 15.48805 35969 ft 475 kts 40°
2026-04-25 15:28 46.57797 15.54466 35981 ft 464 kts 23°
2026-04-25 15:28 46.60717 15.56420 35790 ft 461 kts 17°
2026-04-25 15:29 46.63675 15.58203 35533 ft 461 kts 17°
2026-04-25 15:29 46.66640 15.59996 35287 ft 462 kts 18°
2026-04-25 15:29 46.69603 15.61797 35037 ft 463 kts 18°
2026-04-25 15:29 46.72571 15.63614 34814 ft 464 kts 18°
2026-04-25 15:30 46.75457 15.65420 34401 ft 467 kts 21°
2026-04-25 15:30 46.78319 15.67685 33637 ft 469 kts 24°
2026-04-25 15:30 46.81170 15.70039 32731 ft 471 kts 25°
2026-04-25 15:30 46.84020 15.72431 31820 ft 473 kts 25°
2026-04-25 15:31 46.86833 15.74814 30936 ft 475 kts 26°
2026-04-25 15:31 46.89692 15.77245 30036 ft 476 kts 26°
2026-04-25 15:31 46.92565 15.79685 28968 ft 478 kts 26°
2026-04-25 15:31 46.95445 15.82122 27978 ft 478 kts 26°
2026-04-25 15:32 46.98331 15.84553 26917 ft 478 kts 26°
2026-04-25 15:32 47.01220 15.86987 25840 ft 480 kts 27°
2026-04-25 15:32 47.04119 15.89427 24736 ft 482 kts 27°
2026-04-25 15:33 47.09952 15.94342 22437 ft 483 kts 27°
2026-04-25 15:33 47.12837 15.96790 21687 ft 475 kts 27°
2026-04-25 15:33 47.15674 15.99209 20917 ft 468 kts 27°
2026-04-25 15:33 47.18468 16.01597 20160 ft 462 kts 27°
2026-04-25 15:34 47.21230 16.03957 19443 ft 456 kts 27°
2026-04-25 15:34 47.23957 16.06286 18739 ft 451 kts 27°
2026-04-25 15:34 47.26653 16.08589 18025 ft 446 kts 27°
2026-04-25 15:34 47.28426 16.10103 17537 ft 442 kts 27°
2026-04-25 15:35 47.34435 16.15238 15983 ft 429 kts 27°
2026-04-25 15:35 47.36999 16.17438 15329 ft 424 kts 27°
2026-04-25 15:35 47.39530 16.19611 14699 ft 419 kts 26°
2026-04-25 15:36 47.44514 16.23893 13450 ft 410 kts 27°
2026-04-25 15:36 47.46969 16.26005 12735 ft 405 kts 27°
2026-04-25 15:36 47.49400 16.28100 12035 ft 402 kts 27°
2026-04-25 15:37 47.51807 16.30177 11262 ft 401 kts 27°
2026-04-25 15:37 47.54201 16.32246 10575 ft 397 kts 27°
2026-04-25 15:37 47.56546 16.34275 9872 ft 393 kts 27°
2026-04-25 15:37 47.58899 16.36311 9091 ft 390 kts 28°
2026-04-25 15:38 47.61227 16.38331 8335 ft 386 kts 27°
2026-04-25 15:38 47.63532 16.40332 7611 ft 382 kts 27°
2026-04-25 15:38 47.65809 16.42308 6859 ft 379 kts 27°
2026-04-25 15:38 47.68075 16.44274 6122 ft 375 kts 27°
2026-04-25 15:39 47.70314 16.46219 5344 ft 371 kts 27°
2026-04-25 15:39 47.72519 16.48137 4638 ft 365 kts 27°
2026-04-25 15:39 47.74682 16.50025 4142 ft 354 kts 27°
2026-04-25 15:39 47.76740 16.51830 4003 ft 334 kts 27°
2026-04-25 15:40 47.78644 16.53504 3877 ft 316 kts 27°
2026-04-25 15:40 47.79277 16.54058 3833 ft 311 kts 26°
2026-04-25 15:40 47.82250 16.56656 3624 ft 286 kts 26°
2026-04-25 15:40 47.83922 16.58120 3504 ft 273 kts 26°
2026-04-25 15:41 47.85520 16.59520 3378 ft 259 kts 26°
2026-04-25 15:41 47.87035 16.60849 3255 ft 246 kts 26°
2026-04-25 15:41 47.88470 16.62111 3132 ft 233 kts 26°
2026-04-25 15:41 47.89844 16.63316 3024 ft 228 kts 27°
2026-04-25 15:42 47.91201 16.64504 3004 ft 225 kts 25°
2026-04-25 15:42 47.92607 16.65330 3002 ft 208 kts
2026-04-25 15:42 47.93999 16.65358 3010 ft 196 kts 345°
2026-04-25 15:42 47.95285 16.64855 3007 ft 190 kts 340°
2026-04-25 15:43 47.96555 16.64320 2987 ft 187 kts 340°
2026-04-25 15:43 47.97787 16.63802 2815 ft 182 kts 341°
2026-04-25 15:43 47.98998 16.63293 2577 ft 179 kts 341°
2026-04-25 15:43 48.00175 16.62798 2354 ft 171 kts 341°
2026-04-25 15:44 48.01257 16.62344 2137 ft 157 kts 340°
2026-04-25 15:44 48.02269 16.61919 1959 ft 143 kts 339°
2026-04-25 15:44 48.03207 16.61524 1778 ft 137 kts 338°
2026-04-25 15:44 48.04106 16.61141 1594 ft 136 kts 340°
2026-04-25 15:45 48.05018 16.60761 1429 ft 135 kts 340°
2026-04-25 15:45 48.05919 16.60382 1233 ft 135 kts 340°
2026-04-25 15:45 48.06799 16.60009 1049 ft 134 kts 337°
2026-04-25 15:45 48.07111 16.59877 996 ft 134 kts 338°
2026-04-25 15:46 48.08607 16.59247 693 ft 135 kts 338°
2026-04-25 15:46 48.09488 16.58876 622 ft 120 kts 346°
2026-04-25 15:46 48.10142 16.58594 622 ft 73 kts 344°
2026-04-25 15:46 48.10498 16.58444 619 ft 36 kts 344°